Tracking 19854 objects as of 22-Sep-2019
HD Live streaming from Space Station
objects crossing your sky now

IUS DEB

Track IUS DEB now!
10-day predictions


NORAD ID: 43363
Int'l Code: 1999-040L
Perigee: 646.0 km
Apogee: 7,695.4 km
Inclination: 28.3 °
Period: 179.5 minutes
Semi major axis: 10541 km
RCS: Unknown
Launch date: July 23, 1999
Source: United States (US)
Launch site: AIR FORCE EASTERN TEST RANGE (AFETR)

Note: This is SATELLITE DEBRIS
aabbcc
Your satellite tracking list
Your tracking list is empty




NASA's NSSDC Master Catalog

Two Line Element Set (TLE):
1 43363U 99040L   19207.13420239  .00001372  00000-0  28846-2 0  9997
2 43363  28.2566 272.9893 3343556 215.7251 116.5422  8.02117017185565
Source of the keplerian elements: AFSPC